Volver al catálogo

ARIANE 2 DEB

ActivoGTO
NORAD 40787·DEBRIS·🇫🇷 France

Lanzado Jan 27, 1989 desde Guiana Space Centre

Loading…

TLE

ObsoletoSource: Space-Track

Época: Sep 3, 2026, 05:55 UTC

1 40787U 89006CG  26246.24681778 -.00000148  00000-0 -57705-3 0  9994
2 40787   7.8227 220.8705 7117694 156.0574 356.1846  2.25287793105207

Sigue ARIANE 2 DEB en tiempo real con AllMySat

Download on the App Store